[{"OBJECT_NAME":"STARLINK-37263","OBJECT_ID":"2026-070C","EPOCH":"2026-09-12T03:47:28.111200","MEAN_MOTION":15.3440803,"ECCENTRICITY":0.00017327,"INCLINATION":53.1586,"RA_OF_ASC_NODE":212.9341,"ARG_OF_PERICENTER":98.3227,"MEAN_ANOMALY":261.7972,"EPHEMERIS_TYPE":0,"CLASSIFICATION_TYPE":"U","NORAD_CAT_ID":68544,"ELEMENT_SET_NO":999,"REV_AT_EPOCH":2515,"BSTAR":0.00070061025,"MEAN_MOTION_DOT":0.00023375,"MEAN_MOTION_DDOT":0},{"OBJECT_NAME":"STARLINK-37289","OBJECT_ID":"2026-070D","EPOCH":"2026-09-12T06:58:05.214432","MEAN_MOTION":15.34376447,"ECCENTRICITY":0.00012097,"INCLINATION":53.1588,"RA_OF_ASC_NODE":212.341,"ARG_OF_PERICENTER":74.9804,"MEAN_ANOMALY":285.1333,"EPHEMERIS_TYPE":0,"CLASSIFICATION_TYPE":"U","NORAD_CAT_ID":68545,"ELEMENT_SET_NO":999,"REV_AT_EPOCH":2517,"BSTAR":0.00081959711,"MEAN_MOTION_DOT":0.00027396,"MEAN_MOTION_DDOT":0},{"OBJECT_NAME":"STARLINK-37290","OBJECT_ID":"2026-070E","EPOCH":"2026-09-12T06:52:01.296768","MEAN_MOTION":15.34418383,"ECCENTRICITY":0.0001118,"INCLINATION":53.1596,"RA_OF_ASC_NODE":212.2975,"ARG_OF_PERICENTER":85.8463,"MEAN_ANOMALY":274.2668,"EPHEMERIS_TYPE":0,"CLASSIFICATION_TYPE":"U","NORAD_CAT_ID":68546,"ELEMENT_SET_NO":999,"REV_AT_EPOCH":2517,"BSTAR":0.00033691514,"MEAN_MOTION_DOT":0.0001103,"MEAN_MOTION_DDOT":0},{"OBJECT_NAME":"STARLINK-37245","OBJECT_ID":"2026-070F","EPOCH":"2026-09-12T06:42:58.033440","MEAN_MOTION":15.34415664,"ECCENTRICITY":0.00015966,"INCLINATION":53.1565,"RA_OF_ASC_NODE":212.2675,"ARG_OF_PERICENTER":80.9558,"MEAN_ANOMALY":279.1625,"EPHEMERIS_TYPE":0,"CLASSIFICATION_TYPE":"U","NORAD_CAT_ID":68547,"ELEMENT_SET_NO":999,"REV_AT_EPOCH":2517,"BSTAR":0.0013181223,"MEAN_MOTION_DOT":0.00044445,"MEAN_MOTION_DDOT":0},{"OBJECT_NAME":"STARLINK-37145","OBJECT_ID":"2026-070G","EPOCH":"2026-09-12T03:41:25.327968","MEAN_MOTION":15.34267239,"ECCENTRICITY":0.00012895,"INCLINATION":53.1594,"RA_OF_ASC_NODE":212.9069,"ARG_OF_PERICENTER":92.681,"MEAN_ANOMALY":267.434,"EPHEMERIS_TYPE":0,"CLASSIFICATION_TYPE":"U","NORAD_CAT_ID":68548,"ELEMENT_SET_NO":999,"REV_AT_EPOCH":2515,"BSTAR":-0.0081827982,"MEAN_MOTION_DOT":-0.00266182,"MEAN_MOTION_DDOT":0},{"OBJECT_NAME":"STARLINK-36204","OBJECT_ID":"2026-070H","EPOCH":"2026-09-12T06:39:54.553536","MEAN_MOTION":15.34402606,"ECCENTRICITY":0.00010392,"INCLINATION":53.1599,"RA_OF_ASC_NODE":212.2572,"ARG_OF_PERICENTER":102.0716,"MEAN_ANOMALY":258.0403,"EPHEMERIS_TYPE":0,"CLASSIFICATION_TYPE":"U","NORAD_CAT_ID":68549,"ELEMENT_SET_NO":999,"REV_AT_EPOCH":2517,"BSTAR":0.0005002421,"MEAN_MOTION_DOT":0.00016564,"MEAN_MOTION_DDOT":0},{"OBJECT_NAME":"STARLINK-36304","OBJECT_ID":"2026-070J","EPOCH":"2026-09-12T06:33:51.065280","MEAN_MOTION":15.34397502,"ECCENTRICITY":0.00013086,"INCLINATION":53.1584,"RA_OF_ASC_NODE":212.2307,"ARG_OF_PERICENTER":90.34,"MEAN_ANOMALY":269.7753,"EPHEMERIS_TYPE":0,"CLASSIFICATION_TYPE":"U","NORAD_CAT_ID":68550,"ELEMENT_SET_NO":999,"REV_AT_EPOCH":2517,"BSTAR":0.00042784524,"MEAN_MOTION_DOT":0.00014105,"MEAN_MOTION_DDOT":0},{"OBJECT_NAME":"STARLINK-37288","OBJECT_ID":"2026-070K","EPOCH":"2026-09-12T06:30:49.097376","MEAN_MOTION":15.34408,"ECCENTRICITY":0.00009885,"INCLINATION":53.1606,"RA_OF_ASC_NODE":212.2154,"ARG_OF_PERICENTER":101.7249,"MEAN_ANOMALY":258.3865,"EPHEMERIS_TYPE":0,"CLASSIFICATION_TYPE":"U","NORAD_CAT_ID":68551,"ELEMENT_SET_NO":999,"REV_AT_EPOCH":2517,"BSTAR":0.00035871439,"MEAN_MOTION_DOT":0.00011766,"MEAN_MOTION_DDOT":0},{"OBJECT_NAME":"STARLINK-37295","OBJECT_ID":"2026-070L","EPOCH":"2026-09-12T06:36:52.928640","MEAN_MOTION":15.3439648,"ECCENTRICITY":0.00014799,"INCLINATION":53.161,"RA_OF_ASC_NODE":212.2451,"ARG_OF_PERICENTER":87.6571,"MEAN_ANOMALY":272.4601,"EPHEMERIS_TYPE":0,"CLASSIFICATION_TYPE":"U","NORAD_CAT_ID":68552,"ELEMENT_SET_NO":999,"REV_AT_EPOCH":2517,"BSTAR":0.00045709498,"MEAN_MOTION_DOT":0.00015097,"MEAN_MOTION_DDOT":0},{"OBJECT_NAME":"STARLINK-37254","OBJECT_ID":"2026-070M","EPOCH":"2026-09-12T06:21:43.752672","MEAN_MOTION":15.34399065,"ECCENTRICITY":0.00008681,"INCLINATION":53.1572,"RA_OF_ASC_NODE":212.1722,"ARG_OF_PERICENTER":112.078,"MEAN_ANOMALY":248.0314,"EPHEMERIS_TYPE":0,"CLASSIFICATION_TYPE":"U","NORAD_CAT_ID":68553,"ELEMENT_SET_NO":999,"REV_AT_EPOCH":2517,"BSTAR":0.00045719848,"MEAN_MOTION_DOT":0.00015102,"MEAN_MOTION_DDOT":0},{"OBJECT_NAME":"STARLINK-37255","OBJECT_ID":"2026-070N","EPOCH":"2026-09-12T06:18:42.346368","MEAN_MOTION":15.34428556,"ECCENTRICITY":0.00012269,"INCLINATION":53.1591,"RA_OF_ASC_NODE":212.1621,"ARG_OF_PERICENTER":94.7028,"MEAN_ANOMALY":265.4115,"EPHEMERIS_TYPE":0,"CLASSIFICATION_TYPE":"U","NORAD_CAT_ID":68554,"ELEMENT_SET_NO":999,"REV_AT_EPOCH":2517,"BSTAR":0.00065493733,"MEAN_MOTION_DOT":0.00021836,"MEAN_MOTION_DDOT":0},{"OBJECT_NAME":"STARLINK-37146","OBJECT_ID":"2026-070P","EPOCH":"2026-09-12T06:24:45.699840","MEAN_MOTION":15.34397665,"ECCENTRICITY":0.00012115,"INCLINATION":53.1588,"RA_OF_ASC_NODE":212.1834,"ARG_OF_PERICENTER":82.7559,"MEAN_ANOMALY":277.3581,"EPHEMERIS_TYPE":0,"CLASSIFICATION_TYPE":"U","NORAD_CAT_ID":68555,"ELEMENT_SET_NO":999,"REV_AT_EPOCH":2517,"BSTAR":0.00043584592,"MEAN_MOTION_DOT":0.00014377,"MEAN_MOTION_DDOT":0},{"OBJECT_NAME":"STARLINK-37144","OBJECT_ID":"2026-070Q","EPOCH":"2026-09-12T06:12:38.184192","MEAN_MOTION":15.34411992,"ECCENTRICITY":0.00011743,"INCLINATION":53.1575,"RA_OF_ASC_NODE":212.1211,"ARG_OF_PERICENTER":100.7467,"MEAN_ANOMALY":259.3668,"EPHEMERIS_TYPE":0,"CLASSIFICATION_TYPE":"U","NORAD_CAT_ID":68556,"ELEMENT_SET_NO":999,"REV_AT_EPOCH":2517,"BSTAR":0.00054244262,"MEAN_MOTION_DOT":0.00018002,"MEAN_MOTION_DDOT":0},{"OBJECT_NAME":"STARLINK-37210","OBJECT_ID":"2026-070R","EPOCH":"2026-09-12T06:15:39.939552","MEAN_MOTION":15.34409037,"ECCENTRICITY":0.00010005,"INCLINATION":53.1571,"RA_OF_ASC_NODE":212.1408,"ARG_OF_PERICENTER":103.323,"MEAN_ANOMALY":256.7884,"EPHEMERIS_TYPE":0,"CLASSIFICATION_TYPE":"U","NORAD_CAT_ID":68557,"ELEMENT_SET_NO":999,"REV_AT_EPOCH":2517,"BSTAR":0.00047796586,"MEAN_MOTION_DOT":0.00015811,"MEAN_MOTION_DDOT":0},{"OBJECT_NAME":"STARLINK-37227","OBJECT_ID":"2026-070S","EPOCH":"2026-09-12T03:02:01.226112","MEAN_MOTION":15.34407204,"ECCENTRICITY":0.0001336,"INCLINATION":53.1577,"RA_OF_ASC_NODE":212.7288,"ARG_OF_PERICENTER":102.8348,"MEAN_ANOMALY":257.2804,"EPHEMERIS_TYPE":0,"CLASSIFICATION_TYPE":"U","NORAD_CAT_ID":68558,"ELEMENT_SET_NO":999,"REV_AT_EPOCH":2515,"BSTAR":0.00064490599,"MEAN_MOTION_DOT":0.0002148,"MEAN_MOTION_DDOT":0},{"OBJECT_NAME":"STARLINK-37294","OBJECT_ID":"2026-070T","EPOCH":"2026-09-12T04:32:47.608224","MEAN_MOTION":15.34427855,"ECCENTRICITY":0.00018797,"INCLINATION":53.1589,"RA_OF_ASC_NODE":212.4109,"ARG_OF_PERICENTER":92.6824,"MEAN_ANOMALY":267.4394,"EPHEMERIS_TYPE":0,"CLASSIFICATION_TYPE":"U","NORAD_CAT_ID":68559,"ELEMENT_SET_NO":999,"REV_AT_EPOCH":2516,"BSTAR":0.00043417007,"MEAN_MOTION_DOT":0.00014334,"MEAN_MOTION_DDOT":0},{"OBJECT_NAME":"STARLINK-37291","OBJECT_ID":"2026-070U","EPOCH":"2026-09-12T06:03:32.474880","MEAN_MOTION":15.34386578,"ECCENTRICITY":0.00013049,"INCLINATION":53.1575,"RA_OF_ASC_NODE":212.0937,"ARG_OF_PERICENTER":87.5619,"MEAN_ANOMALY":272.5533,"EPHEMERIS_TYPE":0,"CLASSIFICATION_TYPE":"U","NORAD_CAT_ID":68560,"ELEMENT_SET_NO":999,"REV_AT_EPOCH":2517,"BSTAR":0.00014108398,"MEAN_MOTION_DOT":0.00004391,"MEAN_MOTION_DDOT":0},{"OBJECT_NAME":"STARLINK-37114","OBJECT_ID":"2026-070V","EPOCH":"2026-09-12T02:52:55.736256","MEAN_MOTION":15.34397231,"ECCENTRICITY":0.00014114,"INCLINATION":53.157,"RA_OF_ASC_NODE":212.6871,"ARG_OF_PERICENTER":96.8232,"MEAN_ANOMALY":263.2931,"EPHEMERIS_TYPE":0,"CLASSIFICATION_TYPE":"U","NORAD_CAT_ID":68561,"ELEMENT_SET_NO":999,"REV_AT_EPOCH":2515,"BSTAR":0.00055189124,"MEAN_MOTION_DOT":0.00018314,"MEAN_MOTION_DDOT":0},{"OBJECT_NAME":"STARLINK-37233","OBJECT_ID":"2026-070W","EPOCH":"2026-09-12T04:20:39.446304","MEAN_MOTION":15.34409007,"ECCENTRICITY":0.0000625,"INCLINATION":53.1581,"RA_OF_ASC_NODE":212.3328,"ARG_OF_PERICENTER":77.5272,"MEAN_ANOMALY":282.58,"EPHEMERIS_TYPE":0,"CLASSIFICATION_TYPE":"U","NORAD_CAT_ID":68562,"ELEMENT_SET_NO":999,"REV_AT_EPOCH":2516,"BSTAR":-0.00018106628,"MEAN_MOTION_DOT":-0.0000649,"MEAN_MOTION_DDOT":0},{"OBJECT_NAME":"STARLINK-36238","OBJECT_ID":"2026-070X","EPOCH":"2026-09-12T07:31:17.022144","MEAN_MOTION":15.34401215,"ECCENTRICITY":0.0001313,"INCLINATION":53.158,"RA_OF_ASC_NODE":211.7566,"ARG_OF_PERICENTER":105.6103,"MEAN_ANOMALY":254.5044,"EPHEMERIS_TYPE":0,"CLASSIFICATION_TYPE":"U","NORAD_CAT_ID":68563,"ELEMENT_SET_NO":999,"REV_AT_EPOCH":2518,"BSTAR":0.00033465074,"MEAN_MOTION_DOT":0.00010947,"MEAN_MOTION_DDOT":0},{"OBJECT_NAME":"STARLINK-37008","OBJECT_ID":"2026-070Y","EPOCH":"2026-09-12T02:43:50.102112","MEAN_MOTION":15.34397706,"ECCENTRICITY":0.00011919,"INCLINATION":53.1583,"RA_OF_ASC_NODE":212.6283,"ARG_OF_PERICENTER":100.323,"MEAN_ANOMALY":259.7907,"EPHEMERIS_TYPE":0,"CLASSIFICATION_TYPE":"U","NORAD_CAT_ID":68564,"ELEMENT_SET_NO":999,"REV_AT_EPOCH":2515,"BSTAR":0.00047080214,"MEAN_MOTION_DOT":0.00015562,"MEAN_MOTION_DDOT":0},{"OBJECT_NAME":"STARLINK-37161","OBJECT_ID":"2026-070Z","EPOCH":"2026-09-12T07:22:11.534880","MEAN_MOTION":15.34409741,"ECCENTRICITY":0.00009348,"INCLINATION":53.1587,"RA_OF_ASC_NODE":211.6994,"ARG_OF_PERICENTER":77.3312,"MEAN_ANOMALY":282.7795,"EPHEMERIS_TYPE":0,"CLASSIFICATION_TYPE":"U","NORAD_CAT_ID":68565,"ELEMENT_SET_NO":999,"REV_AT_EPOCH":2518,"BSTAR":0.00075527613,"MEAN_MOTION_DOT":0.00025236,"MEAN_MOTION_DDOT":0},{"OBJECT_NAME":"STARLINK-37212","OBJECT_ID":"2026-070AA","EPOCH":"2026-09-12T07:19:09.923808","MEAN_MOTION":15.34400615,"ECCENTRICITY":0.00013067,"INCLINATION":53.1578,"RA_OF_ASC_NODE":211.7014,"ARG_OF_PERICENTER":93.2703,"MEAN_ANOMALY":266.8449,"EPHEMERIS_TYPE":0,"CLASSIFICATION_TYPE":"U","NORAD_CAT_ID":68566,"ELEMENT_SET_NO":999,"REV_AT_EPOCH":2518,"BSTAR":0.00056242812,"MEAN_MOTION_DOT":0.00018674,"MEAN_MOTION_DDOT":0}]